EW4553 Weather Reports


time (UTC)temp
C
wind
direction
speed
KPH
gust
KPH
rain 1hr
cm
rain 24hr
cm
rain mn
cm
humidity
%
barometer
mb
20260507164509 14 126 1.6 12.9 0.00 0.00 0.00 73 1014.6
20260507164317 14 126 4.8 12.9 0.00 0.00 0.00 73 1014.7
20260507163751 14 111 1.6 11.3 0.00 0.00 0.00 74 1014.7
20260507163222 14 112 3.2 11.3 0.00 0.00 0.00 74 1014.7
20260507163022 14 112 0.0 11.3 0.00 0.00 0.00 74 1014.6
20260507162720 14 112 4.8 11.3 0.00 0.00 0.00 74 1014.7
20260507162152 15 105 3.2 11.3 0.00 0.00 0.00 73 1014.8
20260507161648 15 102 3.2 9.7 0.00 0.00 0.00 73 1014.8
20260507161516 14 102 1.6 9.7 0.00 0.00 0.00 73 1014.7
20260507161139 14 72 3.2 9.7 0.00 0.00 0.00 73 1014.8
20260507160637 14 126 3.2 9.7 0.00 0.00 0.00 73 1014.8
20260507160607 15 127 3.2 9.7 0.00 0.00 0.00 72 1014.8
20260507160041 14 128 3.2 9.7 0.00 0.00 0.00 71 1014.8
20260507155627 15 107 3.2 9.7 0.00 0.00 0.00 70 1014.9
20260507155322 15 133 3.2 12.9 0.00 0.00 0.00 70 1014.9
20260507154554 15 106 3.2 12.9 0.00 0.00 0.00 71 1014.9
20260507154537 15 106 0.0 11.3 0.00 0.00 0.00 71 1014.8
20260507154052 15 164 4.8 12.9 0.00 0.00 0.00 70 1014.9
20260507154037 15 118 3.2 12.9 0.00 0.00 0.00 69 1015.0
20260507153054 15 133 3.2 12.9 0.00 0.00 0.00 69 1014.9
20260507153034 15 133 4.8 12.9 0.00 0.00 0.00 69 1015.0
20260507152755 15 109 4.8 12.9 0.00 0.00 0.00 69 1014.9
20260507152004 15 107 6.4 12.9 0.00 0.00 0.00 68 1015.0
20260507151548 15 106 4.8 12.9 0.00 0.00 0.00 68 1014.9
20260507151504 16 107 4.8 12.9 0.00 0.00 0.00 68 1015.0
20260507151001 16 106 4.8 12.9 0.00 0.00 0.00 71 1015.0
20260507150501 15 105 4.8 12.9 0.00 0.00 0.00 69 1015.1
20260507150107 15 109 4.8 12.9 0.00 0.00 0.00 66 1015.0
20260507145939 16 108 4.8 12.9 0.00 0.00 0.00 67 1015.1
20260507145438 16 109 4.8 12.9 0.00 0.00 0.00 68 1015.2
20260507144934 16 120 4.8 14.5 0.00 0.00 0.00 67 1015.1
20260507144514 16 127 4.8 14.5 0.00 0.00 0.00 64 1015.1
20260507144434 16 127 6.4 14.5 0.00 0.00 0.00 64 1015.2
20260507143918 16 130 4.8 11.3 0.00 0.00 0.00 65 1015.3
20260507143417 16 141 1.6 11.3 0.00 0.00 0.00 65 1015.3
20260507143412 16 117 3.2 11.3 0.00 0.00 0.00 68 1015.4
20260507143039 16 117 0.0 9.7 0.00 0.00 0.00 68 1015.2
20260507142640 16 110 4.8 11.3 0.00 0.00 0.00 69 1015.4
20260507141913 16 116 6.4 14.5 0.00 0.00 0.00 68 1015.5
20260507141601 16 155 6.4 12.9 0.00 0.00 0.00 69 1015.4
20260507141415 16 141 6.4 14.5 0.00 0.00 0.00 68 1015.6
20260507140900 16 110 6.4 14.5 0.00 0.00 0.00 72 1015.7
20260507140356 16 127 6.4 14.5 0.00 0.00 0.00 70 1015.7
20260507140026 15 143 6.4 12.9 0.00 0.00 0.00 69 1015.6
20260507135832 16 139 6.4 14.5 0.00 0.00 0.00 69 1015.7
20260507135328 16 143 6.4 14.5 0.00 0.00 0.00 70 1015.7
20260507134827 16 133 6.4 14.5 0.00 0.00 0.00 73 1015.7
20260507134557 16 130 4.8 14.5 0.00 0.00 0.00 72 1015.6
20260507134252 16 95 8.0 14.5 0.00 0.00 0.00 71 1015.6
20260507133751 16 119 6.4 14.5 0.00 0.00 0.00 68 1015.6
20260507133243 17 126 4.8 14.5 0.00 0.00 0.00 69 1015.6
20260507133018 17 111 4.8 12.9 0.00 0.00 0.00 69 1015.5
20260507132728 17 100 4.8 12.9 0.00 0.00 0.00 71 1015.6
20260507132222 17 123 6.4 14.5 0.00 0.00 0.00 70 1015.7
20260507131934 17 119 4.8 14.5 0.00 0.00 0.00 70 1015.6
20260507131534 17 112 3.2 14.5 0.00 0.00 0.00 70 1015.5
20260507131137 17 133 4.8 14.5 0.00 0.00 0.00 71 1015.7
20260507130626 16 136 6.4 14.5 0.00 0.00 0.00 70 1015.7
20260507130123 16 123 8.0 14.5 0.00 0.00 0.00 70 1015.7
20260507130103 16 123 4.8 14.5 0.00 0.00 0.00 70 1015.6
20260507125623 16 129 6.4 14.5 0.00 0.00 0.00 69 1015.8
20260507125120 17 114 6.4 14.5 0.00 0.00 0.00 70 1015.7
20260507124621 17 142 4.8 14.5 0.00 0.00 0.00 69 1015.6
20260507124555 16 141 6.4 14.5 0.00 0.00 0.00 69 1015.5
20260507124104 17 136 4.8 14.5 0.00 0.00 0.00 72 1015.7
20260507123556 16 110 6.4 14.5 0.00 0.00 0.00 71 1015.7
20260507123052 16 107 6.4 14.5 0.00 0.00 0.00 71 1015.7
20260507123040 16 102 4.8 14.5 0.00 0.00 0.00 71 1015.6
20260507122551 16 114 6.4 12.9 0.00 0.00 0.00 71 1015.8
20260507122258 16 145 4.8 12.9 0.00 0.00 0.00 71 1015.9
20260507122243 16 122 6.4 12.9 0.00 0.00 0.00 72 1015.8
20260507121518 16 145 6.4 12.9 0.00 0.00 0.00 71 1015.8
20260507121017 16 126 4.8 12.9 0.00 0.00 0.00 69 1015.9
20260507120514 16 110 4.8 12.9 0.00 0.00 0.00 69 1015.8
20260507120233 17 109 4.8 14.5 0.00 0.00 0.00 70 1015.8
20260507120055 16 109 3.2 14.5 0.00 0.00 0.00 70 1015.7
20260507115454 17 144 6.4 14.5 0.00 0.00 0.00 70 1015.8
20260507114943 17 147 8.0 16.1 0.00 0.00 0.00 69 1015.9
20260507114528 17 112 8.0 16.1 0.00 0.00 0.00 68 1015.9
20260507114443 17 131 8.0 16.1 0.00 0.00 0.00 68 1016.0
20260507113919 17 129 6.4 14.5 0.00 0.00 0.00 69 1015.9
20260507113419 17 111 6.4 14.5 0.00 0.00 0.00 70 1015.9
20260507113004 17 105 6.4 12.9 0.00 0.00 0.00 69 1015.8
20260507112922 17 124 6.4 12.9 0.00 0.00 0.00 69 1015.9
20260507112353 17 138 4.8 12.9 0.00 0.00 0.00 68 1015.9
20260507111854 17 145 3.2 12.9 0.00 0.00 0.00 69 1015.8
20260507111521 17 100 1.6 11.3 0.00 0.00 0.00 69 1015.7
20260507111347 17 133 1.6 12.9 0.00 0.00 0.00 71 1015.9
20260507110843 17 114 3.2 14.5 0.00 0.00 0.00 71 1015.9
20260507110344 16 183 4.8 14.5 0.00 0.00 0.00 72 1015.9
20260507110122 16 115 4.8 14.5 0.00 0.00 0.00 72 1015.8
20260507105335 16 130 6.4 16.1 0.00 0.00 0.00 71 1015.9
20260507104830 16 138 6.4 16.1 0.00 0.00 0.00 72 1015.9
20260507104519 15 120 3.2 16.1 0.00 0.00 0.00 71 1015.8
20260507104327 16 140 6.4 16.1 0.00 0.00 0.00 72 1016.0
20260507103759 16 120 6.4 14.5 0.00 0.00 0.00 72 1015.9
20260507103258 16 121 4.8 14.5 0.00 0.00 0.00 73 1015.8
20260507103019 15 115 8.0 14.5 0.00 0.00 0.00 72 1015.7
20260507102945 16 126 3.2 12.9 0.00 0.00 0.00 73 1015.8
20260507102223 15 108 3.2 14.5 0.00 0.00 0.00 75 1015.8
20260507101720 15 121 3.2 14.5 0.00 0.00 0.00 74 1015.8
20260507101549 15 120 1.6 11.3 0.00 0.00 0.00 74 1015.7
20260507101215 15 167 4.8 14.5 0.00 0.00 0.00 74 1015.9
20260507100714 15 124 4.8 14.5 0.00 0.00 0.00 75 1015.9
20260507100145 15 140 4.8 11.3 0.00 0.00 0.00 74 1015.9
20260507100055 15 140 4.8 11.3 0.00 0.00 0.00 74 1015.8
20260507095644 15 143 4.8 11.3 0.00 0.00 0.00 74 1015.9
20260507095118 15 105 6.4 12.9 0.00 0.00 0.00 73 1015.8
20260507095054 15 118 4.8 12.9 0.00 0.00 0.00 73 1015.8
20260507094556 15 136 1.6 11.3 0.00 0.00 0.00 74 1015.7
20260507094515 15 118 4.8 12.9 0.00 0.00 0.00 74 1015.7
20260507093617 15 149 0.0 9.7 0.00 0.00 0.00 74 1015.7
20260507093049 15 148 0.0 9.7 0.00 0.00 0.00 76 1015.7
20260507093036 15 122 0.0 6.4 0.00 0.00 0.00 76 1015.6
20260507092523 15 150 1.6 9.7 0.00 0.00 0.00 78 1015.7
20260507092011 15 114 3.2 11.3 0.00 0.00 0.00 80 1015.7
20260507091535 14 136 3.2 11.3 0.00 0.00 0.00 80 1015.6
20260507091512 14 136 4.8 11.3 0.00 0.00 0.00 80 1015.7
20260507091005 14 136 4.8 11.3 0.00 0.00 0.00 82 1015.6
20260507090514 13 126 1.6 11.3 0.00 0.00 0.00 83 1015.6
20260507090037 13 114 0.0 8.0 0.00 0.00 0.00 83 1015.6
20260507090001 13 143 0.0 6.4 0.00 0.00 0.00 83 1015.7
20260507085728 13 158 0.0 1.6 0.00 0.00 0.00 83 1015.7
20260507085001 13 137 0.0 1.6 0.00 0.00 0.00 84 1015.7
20260507084505 12 137 0.0 0.0 0.00 0.00 0.00 84 1015.6
20260507084434 12 137 0.0 0.0 0.00 0.00 0.00 84 1015.6
20260507083912 12 137 0.0 0.0 0.00 0.00 0.00 85 1015.7
20260507083409 12 132 0.0 0.0 0.00 0.00 0.00 85 1015.7
20260507083059 12 132 0.0 0.0 0.00 0.00 0.00 85 1015.5
20260507082908 12 132 0.0 0.0 0.00 0.00 0.00 85 1015.7
20260507082619 12 132 0.0 0.0 0.00 0.00 0.00 86 1015.7
20260507081857 11 132 0.0 6.4 0.00 0.00 0.00 86 1015.7
20260507081512 11 132 0.0 1.6 0.00 0.00 0.00 86 1015.6
20260507081354 11 132 0.0 6.4 0.00 0.00 0.00 86 1015.7
20260507080856 11 131 1.6 8.0 0.00 0.00 0.00 86 1015.7
20260507080342 11 132 3.2 8.0 0.00 0.00 0.00 86 1015.7
20260507080029 11 133 3.2 8.0 0.00 0.00 0.00 86 1015.6
20260507075843 11 133 1.6 9.7 0.00 0.00 0.00 86 1015.7
20260507075320 11 134 1.6 9.7 0.00 0.00 0.00 86 1015.7
20260507074751 11 105 3.2 9.7 0.00 0.00 0.00 87 1015.7
20260507074551 10 105 4.8 9.7 0.00 0.00 0.00 86 1015.5
20260507074247 11 106 0.0 9.7 0.00 0.00 0.00 87 1015.6
20260507074010 10 107 0.0 1.6 0.00 0.00 0.00 87 1015.6
20260507073243 10 107 0.0 1.6 0.00 0.00 0.00 87 1015.5
20260507073047 10 107 0.0 1.6 0.00 0.00 0.00 87 1015.5
20260507072745 10 95 0.0 0.0 0.00 0.00 0.00 87 1015.5
20260507072243 10 95 0.0 0.0 0.00 0.00 0.00 88 1015.6
20260507071739 10 94 0.0 0.0 0.00 0.00 0.00 88 1015.4
20260507071517 10 94 0.0 0.0 0.00 0.00 0.00 88 1015.4
20260507071441 10 85 0.0 0.0 0.00 0.00 0.00 89 1015.4
20260507070647 10 85 0.0 0.0 0.00 0.00 0.00 89 1015.3
20260507070148 10 85 0.0 0.0 0.00 0.00 0.00 89 1015.2
20260507070013 9 85 0.0 0.0 0.00 0.00 0.00 89 1015.2
20260507065623 9 85 0.0 0.0 0.00 0.00 0.00 89 1015.2
20260507065122 9 85 0.0 0.0 0.00 0.00 0.00 89 1015.2
20260507064556 9 85 0.0 0.0 0.00 0.00 0.00 90 1015.2
20260507064532 8 85 0.0 0.0 0.00 0.00 0.00 90 1015.1
20260507064520 9 85 0.0 0.0 0.00 0.00 0.00 90 1015.1
20260507063535 8 85 0.0 0.0 0.00 0.00 0.00 90 1015.1
20260507063031 8 85 0.0 0.0 0.00 0.00 0.00 90 1015.1
20260507063005 8 85 0.0 0.0 0.00 0.00 0.00 90 1015.1
20260507062515 8 241 0.0 0.0 0.00 0.00 0.00 90 1015.1
20260507062016 8 241 0.0 0.0 0.00 0.00 0.00 90 1015.1
20260507061529 8 241 0.0 0.0 0.00 0.00 0.00 90 1015.1
20260507061509 8 241 0.0 0.0 0.00 0.00 0.00 90 1015.1
20260507061009 8 241 0.0 0.0 0.00 0.00 0.00 90 1015.1
20260507060439 8 241 0.0 0.0 0.00 0.00 0.00 90 1015.1
20260507060153 8 241 0.0 0.0 0.00 0.00 0.00 90 1015.1
20260507060106 7 241 0.0 0.0 0.00 0.00 0.00 90 1015.0
20260507055433 8 241 0.0 0.0 0.00 0.00 0.00 90 1015.1
20260507054931 7 241 0.0 0.0 0.00 0.00 0.00 90 1015.0
20260507054512 7 241 0.0 0.0 0.00 0.00 0.00 90 1014.9
20260507054432 7 241 0.0 0.0 0.00 0.00 0.00 90 1015.0
20260507053913 7 241 0.0 0.0 0.00 0.00 0.00 90 1015.1
20260507053344 7 241 0.0 0.0 0.00 0.00 0.00 89 1015.1
20260507053003 7 241 0.0 0.0 0.00 0.00 0.00 89 1014.9
20260507052824 7 241 0.0 0.0 0.00 0.00 0.00 89 1015.0
20260507052315 7 241 0.0 0.0 0.00 0.00 0.00 89 1014.9
20260507051815 7 241 0.0 0.0 0.00 0.00 0.00 89 1014.9
20260507051538 7 241 0.0 0.0 0.00 0.00 0.00 89 1014.8
20260507051524 7 241 0.0 0.0 0.00 0.00 0.00 89 1014.9
20260507050803 7 241 0.0 0.0 0.00 0.00 0.00 89 1015.0
20260507050240 7 241 0.0 0.0 0.00 0.00 0.00 89 1015.0
20260507050014 7 241 0.0 0.0 0.00 0.00 0.00 89 1015.0
20260507045732 7 241 0.0 0.0 0.00 0.00 0.00 89 1015.0
20260507045213 7 241 0.0 0.0 0.00 0.00 0.00 89 1015.0
20260507044713 7 241 0.0 0.0 0.00 0.00 0.00 89 1015.0
20260507044509 7 241 0.0 0.0 0.00 0.00 0.00 89 1015.0
20260507044212 7 241 0.0 0.0 0.00 0.00 0.00 89 1015.0
20260507043911 7 241 0.0 0.0 0.00 0.00 0.00 89 1014.9
20260507043125 7 241 0.0 0.0 0.00 0.00 0.00 89 1014.9
20260507043100 7 241 0.0 0.0 0.00 0.00 0.00 89 1014.8
20260507042600 7 241 0.0 0.0 0.00 0.00 0.00 89 1014.9
20260507042046 7 241 0.0 0.0 0.00 0.00 0.00 89 1014.8
20260507041539 7 241 0.0 0.0 0.00 0.00 0.00 89 1014.8
20260507041532 7 241 0.0 0.0 0.00 0.00 0.00 89 1014.7
20260507041041 7 241 0.0 0.0 0.00 0.00 0.00 89 1014.8
20260507040538 7 241 0.0 0.0 0.00 0.00 0.00 89 1014.8
20260507040049 7 241 0.0 0.0 0.00 0.00 0.00 89 1014.7
20260507040022 7 241 0.0 0.0 0.00 0.00 0.00 89 1014.7
20260507035510 7 241 0.0 0.0 0.00 0.00 0.00 89 1014.7
20260507034945 7 241 0.0 0.0 0.00 0.00 0.00 89 1014.7
20260507034608 7 241 0.0 0.0 0.00 0.00 0.00 88 1014.6
20260507034417 7 241 0.0 0.0 0.00 0.00 0.00 88 1014.6
20260507033854 7 241 0.0 0.0 0.00 0.00 0.00 88 1014.6
20260507033346 7 241 0.0 0.0 0.00 0.00 0.00 88 1014.6
20260507033042 7 241 0.0 0.0 0.00 0.00 0.00 87 1014.5
20260507032845 7 241 0.0 0.0 0.00 0.00 0.00 88 1014.6
20260507032544 7 241 0.0 0.0 0.00 0.00 0.00 87 1014.7
20260507031750 7 241 0.0 0.0 0.00 0.00 0.00 87 1014.7
20260507031550 7 241 0.0 0.0 0.00 0.00 0.00 87 1014.6
20260507031249 7 241 0.0 0.0 0.00 0.00 0.00 87 1014.6
20260507030720 8 241 0.0 0.0 0.00 0.00 0.00 87 1014.5
20260507030216 8 241 0.0 0.0 0.00 0.00 0.00 87 1014.6
20260507030006 7 241 0.0 0.0 0.00 0.00 0.00 87 1014.5
20260507025705 8 241 0.0 0.0 0.00 0.00 0.00 87 1014.6
20260507025426 8 241 0.0 0.0 0.00 0.00 0.00 87 1014.5
20260507024659 8 241 0.0 0.0 0.00 0.00 0.00 87 1014.5
20260507024530 8 241 0.0 0.0 0.00 0.00 0.00 87 1014.4
20260507024130 8 241 0.0 0.0 0.00 0.00 0.00 87 1014.5
20260507023629 8 241 0.0 0.0 0.00 0.00 0.00 86 1014.5
20260507023600 8 241 0.0 0.0 0.00 0.00 0.00 86 1014.4
20260507023014 8 241 0.0 0.0 0.00 0.00 0.00 86 1014.4
20260507022822 8 241 0.0 0.0 0.00 0.00 0.00 86 1014.4
20260507022035 8 188 0.0 0.0 0.00 0.00 0.00 86 1014.4
20260507021556 8 188 0.0 0.0 0.00 0.00 0.00 85 1014.3
20260507021510 8 188 0.0 0.0 0.00 0.00 0.00 85 1014.4
20260507021430 8 188 0.0 0.0 0.00 0.00 0.00 85 1014.5
20260507020444 8 188 0.0 0.0 0.00 0.00 0.00 85 1014.4
20260507020019 8 188 0.0 0.0 0.00 0.00 0.00 85 1014.3
20260507015938 8 188 0.0 0.0 0.00 0.00 0.00 85 1014.4
20260507015415 8 188 0.0 0.0 0.00 0.00 0.00 85 1014.4
20260507014903 8 188 0.0 0.0 0.00 0.00 0.00 85 1014.4
20260507014549 8 188 0.0 0.0 0.00 0.00 0.00 85 1014.3
20260507014402 8 188 0.0 0.0 0.00 0.00 0.00 85 1014.5
20260507013836 8 188 0.0 0.0 0.00 0.00 0.00 85 1014.5
20260507013311 8 188 0.0 0.0 0.00 0.00 0.00 85 1014.5
20260507013022 8 188 0.0 0.0 0.00 0.00 0.00 85 1014.4
20260507012743 8 188 0.0 0.0 0.00 0.00 0.00 85 1014.5
20260507012241 9 188 0.0 0.0 0.00 0.00 0.00 84 1014.6
20260507011711 9 188 0.0 0.0 0.00 0.00 0.00 84 1014.6
20260507011654 9 188 0.0 0.0 0.00 0.00 0.00 84 1014.6
20260507011521 8 188 0.0 0.0 0.00 0.00 0.00 84 1014.5
20260507010643 9 188 0.0 0.0 0.00 0.00 0.00 84 1014.6
20260507010117 9 188 0.0 0.0 0.00 0.00 0.00 84 1014.5
20260507010105 8 188 0.0 0.0 0.00 0.00 0.00 84 1014.5
20260507005548 9 188 0.0 0.0 0.00 0.00 0.00 84 1014.5
20260507005047 9 188 0.0 0.0 0.00 0.00 0.00 83 1014.5
20260507004559 9 188 0.0 0.0 0.00 0.00 0.00 83 1014.4
20260507004540 9 188 0.0 0.0 0.00 0.00 0.00 83 1014.5
20260507004305 9 188 0.0 0.0 0.00 0.00 0.00 83 1014.5
20260507004014 9 188 0.0 0.0 0.00 0.00 0.00 83 1014.5
20260507003255 9 188 0.0 0.0 0.00 0.00 0.00 83 1014.6
20260507003004 9 188 0.0 0.0 0.00 0.00 0.00 83 1014.5
20260507002505 9 188 0.0 0.0 0.00 0.00 0.00 84 1014.6
20260507001936 9 188 0.0 0.0 0.00 0.00 0.00 84 1014.6
20260507001517 9 188 0.0 0.0 0.00 0.00 0.00 85 1014.6
20260507001433 9 188 0.0 0.0 0.00 0.00 0.00 85 1014.6
20260507000941 9 188 0.0 0.0 0.00 0.00 0.00 85 1014.7
20260507000655 9 188 0.0 0.0 0.00 0.00 0.00 84 1014.8
20260507000125 9 188 0.0 0.0 0.00 0.00 0.00 84 1014.7
20260507000030 9 188 0.0 0.0 0.00 0.00 0.00 84 1014.7
20260506235401 9 188 0.0 0.0 0.00 0.00 0.00 84 1014.7
20260506234826 10 188 0.0 0.0 0.00 0.00 0.00 84 1014.7
20260506234538 9 188 0.0 0.0 0.00 0.00 0.00 84 1014.7
20260506234258 10 188 0.0 0.0 0.00 0.00 0.00 84 1014.7
20260506233757 10 188 0.0 0.0 0.00 0.00 0.00 84 1014.7
20260506233228 10 188 0.0 0.0 0.00 0.00 0.00 84 1014.7
20260506233028 9 188 0.0 0.0 0.00 0.00 0.00 84 1014.6
20260506232740 10 188 0.0 0.0 0.00 0.00 0.00 84 1014.6
20260506232210 10 188 0.0 0.0 0.00 0.00 0.00 83 1014.6
20260506231707 10 188 0.0 0.0 0.00 0.00 0.00 83 1014.7
20260506231542 9 188 0.0 0.0 0.00 0.00 0.00 83 1014.6
20260506231152 10 188 0.0 0.0 0.00 0.00 0.00 83 1014.7
20260506230650 10 188 0.0 0.0 0.00 0.00 0.00 82 1014.7
20260506230127 10 188 0.0 0.0 0.00 0.00 0.00 82 1014.7
20260506230058 9 188 0.0 0.0 0.00 0.00 0.00 82 1014.6
20260506225847 10 188 0.0 0.0 0.00 0.00 0.00 82 1014.7
20260506225123 10 188 0.0 0.0 0.00 0.00 0.00 81 1014.7
20260506224623 10 188 0.0 0.0 0.00 0.00 0.00 81 1014.7
20260506224555 9 188 0.0 0.0 0.00 0.00 0.00 81 1014.7
20260506224320 10 188 0.0 0.0 0.00 0.00 0.00 80 1014.7
20260506224023 10 188 0.0 0.0 0.00 0.00 0.00 80 1014.8
20260506223033 10 188 0.0 0.0 0.00 0.00 0.00 79 1014.7
20260506223003 9 188 0.0 0.0 0.00 0.00 0.00 79 1014.6
20260506222519 10 188 0.0 0.0 0.00 0.00 0.00 79 1014.7
20260506222021 10 188 0.0 0.0 0.00 0.00 0.00 79 1014.7
20260506222004 10 188 0.0 0.0 0.00 0.00 0.00 78 1014.6
20260506221553 9 188 0.0 0.0 0.00 0.00 0.00 79 1014.6
20260506221013 10 188 0.0 0.0 0.00 0.00 0.00 78 1014.6
20260506220518 10 188 0.0 0.0 0.00 0.00 0.00 78 1014.6
20260506220022 9 188 0.0 0.0 0.00 0.00 0.00 78 1014.5
20260506220002 10 188 0.0 0.0 0.00 0.00 0.00 78 1014.6
20260506215501 10 188 0.0 0.0 0.00 0.00 0.00 78 1014.6
20260506214931 10 188 0.0 0.0 0.00 0.00 0.00 78 1014.6
20260506214609 10 188 0.0 0.0 0.00 0.00 0.00 78 1014.5
20260506214407 10 188 0.0 0.0 0.00 0.00 0.00 78 1014.6
20260506213839 10 188 0.0 0.0 0.00 0.00 0.00 78 1014.6
20260506213536 10 188 0.0 0.0 0.00 0.00 0.00 77 1014.6
20260506213055 10 188 0.0 0.0 0.00 0.00 0.00 77 1014.5
20260506212748 10 188 0.0 0.0 0.00 0.00 0.00 77 1014.6
20260506212220 10 188 0.0 0.0 0.00 0.00 0.00 77 1014.6
20260506211945 10 188 0.0 0.0 0.00 0.00 0.00 77 1014.6
20260506211548 10 188 0.0 0.0 0.00 0.00 0.00 77 1014.6
20260506211150 10 188 0.0 0.0 0.00 0.00 0.00 77 1014.6
20260506211106 10 188 0.0 0.0 0.00 0.00 0.00 77 1014.6
20260506210120 10 188 0.0 0.0 0.00 0.00 0.00 77 1014.5
20260506210027 10 188 0.0 0.0 0.00 0.00 0.00 77 1014.5
20260506205617 10 188 0.0 0.0 0.00 0.00 0.00 77 1014.5
20260506205112 10 188 0.0 0.0 0.00 0.00 0.00 76 1014.5
20260506204608 10 188 0.0 0.0 0.00 0.00 0.00 76 1014.4
20260506204543 10 188 0.0 0.0 0.00 0.00 0.00 76 1014.3
20260506204106 10 188 0.0 0.0 0.00 0.00 0.00 76 1014.4
20260506203533 10 188 0.0 0.0 0.00 0.00 0.00 76 1014.4
20260506203030 10 188 0.0 1.6 0.00 0.00 0.00 76 1014.4
20260506203013 10 188 0.0 0.0 0.00 0.00 0.00 76 1014.3
20260506202721 10 188 0.0 1.6 0.00 0.00 0.00 76 1014.3
20260506202146 10 188 0.0 1.6 0.00 0.00 0.00 76 1014.3
20260506201515 10 188 0.0 1.6 0.00 0.00 0.00 76 1014.2
20260506201424 10 188 0.0 1.6 0.00 0.00 0.00 76 1014.3
20260506200859 10 188 0.0 0.0 0.00 0.00 0.00 76 1014.2
20260506200348 10 188 0.0 0.0 0.00 0.00 0.00 75 1014.2
20260506200257 10 188 0.0 6.4 0.00 0.00 0.00 75 1014.2
20260506200046 10 188 0.0 0.0 0.00 0.00 0.00 75 1014.1
20260506195306 10 188 1.6 6.4 0.00 0.00 0.00 75 1014.1
20260506194739 10 188 3.2 6.4 0.00 0.00 0.00 74 1014.1
20260506194600 10 188 1.6 6.4 0.00 0.00 0.00 74 1014.0
20260506194226 11 188 1.6 6.4 0.00 0.00 0.00 75 1014.0
20260506193729 11 188 1.6 6.4 0.00 0.00 0.00 75 1014.0
20260506193212 11 188 3.2 6.4 0.00 0.00 0.00 75 1014.1
20260506193014 10 188 1.6 6.4 0.00 0.00 0.00 75 1013.9
20260506192712 11 188 1.6 6.4 0.00 0.00 0.00 75 1014.0
20260506192219 11 188 0.0 8.0 0.00 0.00 0.00 75 1014.0
20260506191924 11 188 1.6 8.0 0.00 0.00 0.00 75 1014.0
20260506191550 11 188 0.0 8.0 0.00 0.00 0.00 75 1013.9
20260506191406 11 188 3.2 8.0 0.00 0.00 0.00 75 1013.8
20260506190616 11 188 1.6 8.0 0.00 0.00 0.00 74 1013.8
20260506190108 11 187 1.6 8.0 0.00 0.00 0.00 74 1013.8
20260506190033 11 187 1.6 8.0 0.00 0.00 0.00 74 1013.7
20260506185534 11 187 3.2 8.0 0.00 0.00 0.00 73 1013.8
20260506185031 11 187 3.2 8.0 0.00 0.00 0.00 73 1013.8
20260506184548 11 182 4.8 9.7 0.00 0.00 0.00 73 1013.8
20260506184529 11 182 4.8 11.3 0.00 0.00 0.00 73 1013.8
20260506184027 11 195 4.8 11.3 0.00 0.00 0.00 73 1013.8
20260506183522 11 197 3.2 11.3 0.00 0.00 0.00 72 1013.8
20260506183019 11 196 3.2 11.3 0.00 0.00 0.00 73 1013.8
20260506183007 11 196 3.2 9.7 0.00 0.00 0.00 73 1013.7
20260506182530 11 197 4.8 11.3 0.00 0.00 0.00 72 1013.7
20260506182012 11 197 3.2 11.3 0.00 0.00 0.00 72 1013.7
20260506181527 11 195 3.2 11.3 0.00 0.00 0.00 72 1013.6
20260506181519 11 192 3.2 11.3 0.00 0.00 0.00 72 1013.7
20260506181002 11 185 4.8 11.3 0.00 0.00 0.00 72 1013.6
20260506180456 11 195 4.8 11.3 0.00 0.00 0.00 71 1013.6
20260506180150 11 175 4.8 14.5 0.00 0.00 0.00 71 1013.6
20260506180048 11 175 3.2 9.7 0.00 0.00 0.00 71 1013.6
20260506175422 11 194 6.4 14.5 0.00 0.00 0.00 71 1013.5
20260506175148 11 191 6.4 14.5 0.00 0.00 0.00 71 1013.5
20260506174642 11 178 4.8 14.5 0.00 0.00 0.00 71 1013.4
20260506174502 11 178 6.4 14.5 0.00 0.00 0.00 71 1013.4
20260506173853 12 180 4.8 17.7 0.00 0.00 0.00 71 1013.4
20260506173351 12 193 6.4 17.7 0.00 0.00 0.00 72 1013.4
20260506173128 12 188 4.8 17.7 0.00 0.00 0.00 72 1013.3
20260506172838 12 198 8.0 17.7 0.00 0.00 0.00 71 1013.3
20260506172604 12 177 6.4 17.7 0.00 0.00 0.00 71 1013.3
20260506171828 12 211 4.8 16.1 0.00 0.00 0.00 71 1013.2
20260506171521 12 194 3.2 14.5 0.00 0.00 0.00 71 1013.2
20260506171328 12 218 8.0 16.1 0.00 0.00 0.00 71 1013.2
20260506170803 12 198 8.0 16.1 0.00 0.00 0.00 71 1013.2
20260506170458 13 170 6.4 14.5 0.00 0.00 0.00 71 1013.1
20260506170040 12 164 8.0 14.5 0.00 0.00 0.00 70 1013.1
20260506165734 13 208 6.4 14.5 0.00 0.00 0.00 71 1013.2
20260506165212 13 156 6.4 14.5 0.00 0.00 0.00 70 1013.1